• In Germany
  • List of Countries
  • For 7 days
  • Water Temperature
  • Satellite Maps
  • Weather Map
  • Weather Widgets
  • user-avatar
    Login

    Hourly Weather Oran

    Today, 25 September, Monday

    Time Temperature Precipitation Wind Pressure Humidity
    00:00 +26°C° 0 mm 1 mps 755 mmHg 76%
    01:00 +25°C° 0 mm 1 mps 754 mmHg 78%
    02:00 +25°C° 0 mm 1 mps 754 mmHg 80%
    03:00 +24°C° 0 mm 1 mps 754 mmHg 82%
    04:00 +24°C° 0 mm 1 mps 754 mmHg 83%
    05:00 +23°C° 0 mm 1 mps 754 mmHg 85%
    06:00 +21°C° 0 mm 0 mps 754 mmHg 86%
    07:00 +24°C° 0 mm 1 mps 754 mmHg 77%
    08:00 +26°C° 0 mm 1 mps 754 mmHg 68%
    09:00 +27°C° 0 mm 1 mps 755 mmHg 59%
    10:00 +28°C° 0 mm 1 mps 754 mmHg 51%
    11:00 +30°C° 0 mm 2 mps 754 mmHg 44%
    12:00 +31°C° 0 mm 2 mps 754 mmHg 37%
    13:00 +31°C° 0 mm 3 mps 754 mmHg 36%
    14:00 +31°C° 0 mm 3 mps 753 mmHg 35%
    15:00 +33°C° 0 mm 3 mps 753 mmHg 35%
    16:00 +31°C° 0 mm 3 mps 753 mmHg 38%
    17:00 +30°C° 0 mm 2 mps 753 mmHg 41%
    18:00 +29°C° 0 mm 1 mps 753 mmHg 44%
    19:00 +28°C° 0 mm 1 mps 753 mmHg 46%
    20:00 +28°C° 0 mm 1 mps 753 mmHg 49%
    21:00 +27°C° 0 mm 1 mps 754 mmHg 51%
    22:00 +27°C° 0 mm 1 mps 753 mmHg 51%
    23:00 +26°C° 0 mm 1 mps 753 mmHg 52%

    Tomorrow, 26 September, Tuesday

    Time Temperature Precipitation Wind Pressure Humidity
    00:00 +26°C° 0 mm 1 mps 753 mmHg 53%
    01:00 +25°C° 0 mm 1 mps 753 mmHg 54%
    02:00 +25°C° 0 mm 1 mps 752 mmHg 55%
    03:00 +24°C° 0 mm 1 mps 752 mmHg 55%
    04:00 +24°C° 0 mm 1 mps 752 mmHg 55%
    05:00 +23°C° 0 mm 1 mps 752 mmHg 54%
    06:00 +23°C° 0 mm 1 mps 752 mmHg 53%
    07:00 +25°C° 0 mm 1 mps 753 mmHg 45%
    08:00 +27°C° 0 mm 1 mps 753 mmHg 37%
    09:00 +29°C° 0 mm 1 mps 753 mmHg 29%
    10:00 +30°C° 0 mm 1 mps 753 mmHg 27%
    11:00 +31°C° 0 mm 2 mps 753 mmHg 26%
    12:00 +32°C° 0 mm 2 mps 753 mmHg 24%
    13:00 +33°C° 0 mm 3 mps 753 mmHg 25%
    14:00 +33°C° 0 mm 3 mps 752 mmHg 26%
    15:00 +33°C° 0 mm 3 mps 752 mmHg 27%
    16:00 +31°C° 0 mm 3 mps 752 mmHg 30%
    17:00 +30°C° 0 mm 3 mps 752 mmHg 34%
    18:00 +29°C° 0 mm 3 mps 752 mmHg 37%
    19:00 +29°C° 0 mm 2 mps 753 mmHg 40%
    20:00 +28°C° 0 mm 2 mps 753 mmHg 44%
    21:00 +27°C° 0 mm 2 mps 754 mmHg 47%
    22:00 +27°C° 0 mm 2 mps 754 mmHg 49%
    23:00 +26°C° 0 mm 2 mps 754 mmHg 51%

    Day after tomorrow, 27 September, Wednesday

    Time Temperature Precipitation Wind Pressure Humidity
    00:00 +26°C° 0 mm 2 mps 754 mmHg 53%
    01:00 +25°C° 0 mm 2 mps 753 mmHg 55%
    02:00 +25°C° 0 mm 2 mps 753 mmHg 57%
    03:00 +24°C° 0 mm 2 mps 753 mmHg 59%
    04:00 +24°C° 0 mm 2 mps 753 mmHg 61%
    05:00 +23°C° 0 mm 2 mps 754 mmHg 63%
    06:00 +23°C° 0 mm 2 mps 754 mmHg 65%
    07:00 +25°C° 0 mm 2 mps 754 mmHg 58%
    08:00 +26°C° 0 mm 2 mps 754 mmHg 51%
    09:00 +28°C° 0 mm 2 mps 755 mmHg 44%
    10:00 +29°C° 0 mm 2 mps 755 mmHg 40%
    11:00 +30°C° 0 mm 3 mps 755 mmHg 36%
    12:00 +31°C° 0 mm 3 mps 755 mmHg 32%
    13:00 +32°C° 0 mm 4 mps 754 mmHg 33%
    14:00 +32°C° 0 mm 5 mps 754 mmHg 33%
    15:00 +32°C° 0 mm 5 mps 754 mmHg 33%
    16:00 +30°C° 0 mm 5 mps 754 mmHg 38%
    17:00 +29°C° 0 mm 5 mps 754 mmHg 42%
    18:00 +28°C° 0 mm 4 mps 754 mmHg 46%
    19:00 +28°C° 0 mm 4 mps 755 mmHg 49%
    20:00 +27°C° 0 mm 4 mps 755 mmHg 52%
    21:00 +27°C° 0 mm 3 mps 756 mmHg 55%
    22:00 +26°C° 0 mm 3 mps 756 mmHg 57%
    23:00 +26°C° 0 mm 3 mps 756 mmHg 60%

    28 September, Thursday

    Time Temperature Precipitation Wind Pressure Humidity
    00:00 +26°C° 0 mm 3 mps 755 mmHg 62%
    01:00 +25°C° 0 mm 3 mps 755 mmHg 64%
    02:00 +25°C° 0 mm 3 mps 755 mmHg 67%
    03:00 +25°C° 0 mm 3 mps 755 mmHg 69%
    04:00 +24°C° 0 mm 3 mps 755 mmHg 70%
    05:00 +24°C° 0 mm 3 mps 755 mmHg 71%
    06:00 +24°C° 0 mm 3 mps 756 mmHg 72%
    07:00 +25°C° 0 mm 3 mps 756 mmHg 64%
    08:00 +27°C° 0 mm 3 mps 756 mmHg 56%
    09:00 +28°C° 0 mm 3 mps 756 mmHg 49%
    10:00 +29°C° 0 mm 4 mps 756 mmHg 43%
    11:00 +32°C° 0 mm 4 mps 756 mmHg 38%
    12:00 +33°C° 0 mm 5 mps 756 mmHg 32%
    13:00 +33°C° 0 mm 5 mps 755 mmHg 32%
    14:00 +33°C° 0 mm 6 mps 755 mmHg 31%
    15:00 +34°C° 0 mm 6 mps 754 mmHg 31%
    16:00 +33°C° 0 mm 6 mps 754 mmHg 35%
    17:00 +30°C° 0 mm 6 mps 754 mmHg 39%
    18:00 +29°C° 0 mm 6 mps 754 mmHg 42%
    19:00 +29°C° 0 mm 6 mps 755 mmHg 45%
    20:00 +28°C° 0 mm 5 mps 755 mmHg 49%
    21:00 +27°C° 0 mm 5 mps 755 mmHg 52%
    22:00 +27°C° 0 mm 4 mps 755 mmHg 54%
    23:00 +27°C° 0 mm 4 mps 755 mmHg 56%

    29 September, Friday

    Time Temperature Precipitation Wind Pressure Humidity
    00:00 +26°C° 0 mm 3 mps 755 mmHg 58%
    01:00 +26°C° 0 mm 3 mps 754 mmHg 60%
    02:00 +25°C° 0 mm 3 mps 754 mmHg 61%
    03:00 +25°C° 0 mm 3 mps 754 mmHg 63%
    04:00 +25°C° 0 mm 3 mps 754 mmHg 65%
    05:00 +24°C° 0 mm 3 mps 754 mmHg 68%
    06:00 +24°C° 0 mm 3 mps 754 mmHg 70%
    07:00 +25°C° 0 mm 3 mps 754 mmHg 65%
    08:00 +26°C° 0 mm 3 mps 754 mmHg 59%
    09:00 +27°C° 0 mm 3 mps 754 mmHg 53%
    10:00 +29°C° 0 mm 3 mps 754 mmHg 48%
    11:00 +30°C° 0 mm 4 mps 754 mmHg 43%
    12:00 +32°C° 0 mm 4 mps 754 mmHg 38%
    13:00 +32°C° 0 mm 4 mps 754 mmHg 37%
    14:00 +32°C° 0 mm 5 mps 753 mmHg 36%
    15:00 +32°C° 0 mm 5 mps 753 mmHg 35%
    16:00 +30°C° 0 mm 5 mps 753 mmHg 38%
    17:00 +29°C° 0 mm 4 mps 753 mmHg 42%
    18:00 +28°C° 0 mm 4 mps 753 mmHg 45%
    19:00 +28°C° 0 mm 3 mps 753 mmHg 49%
    20:00 +27°C° 0 mm 3 mps 754 mmHg 52%
    21:00 +26°C° 0 mm 2 mps 754 mmHg 56%
    22:00 +26°C° 0 mm 2 mps 754 mmHg 59%
    23:00 +25°C° 0 mm 2 mps 754 mmHg 62%

    30 September, Saturday

    Time Temperature Precipitation Wind Pressure Humidity
    00:00 +25°C° 0 mm 2 mps 753 mmHg 65%
    01:00 +24°C° 0 mm 2 mps 753 mmHg 67%
    02:00 +24°C° 0 mm 1 mps 753 mmHg 69%
    03:00 +24°C° 0 mm 1 mps 753 mmHg 72%
    04:00 +23°C° 0 mm 1 mps 753 mmHg 73%
    05:00 +23°C° 0 mm 1 mps 753 mmHg 75%
    06:00 +22°C° 0 mm 1 mps 753 mmHg 76%
    07:00 +24°C° 0 mm 1 mps 753 mmHg 67%
    08:00 +25°C° 0 mm 1 mps 753 mmHg 58%
    09:00 +27°C° 0 mm 1 mps 753 mmHg 49%
    10:00 +28°C° 0 mm 1 mps 753 mmHg 43%
    11:00 +30°C° 0 mm 2 mps 753 mmHg 36%
    12:00 +31°C° 0 mm 2 mps 752 mmHg 30%
    13:00 +31°C° 0 mm 3 mps 752 mmHg 30%
    14:00 +31°C° 0 mm 3 mps 751 mmHg 30%
    15:00 +33°C° 0 mm 4 mps 751 mmHg 30%
    16:00 +30°C° 0 mm 3 mps 751 mmHg 34%
    17:00 +29°C° 0 mm 3 mps 751 mmHg 38%
    18:00 +28°C° 0 mm 3 mps 751 mmHg 42%
    19:00 +28°C° 0 mm 2 mps 751 mmHg 44%
    20:00 +28°C° 0 mm 2 mps 751 mmHg 45%
    21:00 +27°C° 0 mm 1 mps 752 mmHg 47%
    22:00 +27°C° 0 mm 1 mps 751 mmHg 47%
    23:00 +26°C° 0 mm 1 mps 751 mmHg 48%
    Show more